Location: Newark
(44.1667°N, 8.2500°E)
Time: 19:08:17
(UTC+00:00)

Vanguard 2 - Pass Details

Date: 15 December 2019
Orbit: 553 x 2938 km, 32.9° (Epoch: 28 January)

Event Time Altitude Azimuth Distance (km) Brightness Sun altitude
Exits shadow 03:15:40 50° 218° (SW) 3,475 10.4 -38.3°
Maximum altitude 03:18:39 53° 192° (SSW) 3,390 10.5 -37.8°
Drops below altitude 10° 03:34:46 10° 122° (ESE) 5,359 12.4 -34.9°
Sets 03:38:39 0° 118° (ESE) 6,151 12.9 -34.2°
